This demonstration page uses our WeatherBlox Daily Observations layout. Learn more.

Left ArrowRight Arrow

39.01783, -85.05884

Hourly Observations for April 25, 2019

Temp ( °F °C ) Dew Point ( °F °C ) Humidity (%) Winds ( mph kmh ) Pressure ( in mb ) Visibility ( mi km ) Precip ( " mm )
12:52 am 00:52 Cloudy with Light Rain 58 14.4 56 13.3 93 93 SSE 3 6 29.85 1011 7 11 N/A
1:12 am 01:12 Cloudy with Light Rain 58 14.4 56 13.3 93 93 SSE 5 7 29.87 1011 6 10 0.01 0.25
1:52 am 01:52 Cloudy 59 15 57 13.9 93 93 SSE 7 11 29.84 1011 7 11 0.01 0.25
2:52 am 02:52 Cloudy with Mist and Fog 58 14.4 56 13.3 93 93 N N/A 29.83 1010 6 10 N/A
3:52 am 03:52 Cloudy with Light Rain 58 14.4 57 13.9 97 97 S 7 11 29.81 1010 5 8 0.09 2.29
4:52 am 04:52 Cloudy with Light Rain 59 15 57 13.9 93 93 S 5 7 29.81 1009 7 11 0.02 0.51
5:52 am 05:52 Cloudy with Light Rain 60 15.6 57 13.9 90 90 SW 3 6 29.81 1010 8 13 0.01 0.25
6:52 am 06:52 Cloudy with Light Rain 59 15 58 14.4 96 96 WSW 3 6 29.82 1010 5 8 0.02 0.51
7:52 am 07:52 Cloudy with Light Rain 60 15.6 58 14.4 93 93 N N/A 29.82 1010 5 8 0.02 0.51
8:18 am 08:18 Cloudy with Light Rain 60 15.6 58 14.4 93 93 S 7 11 29.83 1010 4 6 0.01 0.25
8:52 am 08:52 Cloudy 61 16.1 59 15 93 93 S 5 7 29.83 1010 7 11 0.01 0.25
9:52 am 09:52 Cloudy 63 17.2 60 15.6 90 90 SE 7 11 29.79 1009 8 13 0.01 0.25
10:15 am 10:15 Cloudy 63 17.2 60 15.6 90 90 E 3 6 29.81 1009 8 13 N/A
10:52 am 10:52 Cloudy 65 18.3 61 16.1 87 87 SSE 6 9 29.81 1010 10 16 N/A
11:52 am 11:52 Cloudy 67 19.4 60 15.6 79 79 SSE 8 13 29.79 1009 10 16 N/A
12:52 pm 12:52 Cloudy 68 20 60 15.6 76 76 SSE 9 15 29.78 1008 10 16 N/A
1:52 pm 13:52 Cloudy with Light Rain 68 20 61 16.1 78 78 SSE 5 7 29.75 1008 10 16 N/A
2:52 pm 14:52 Cloudy 68 20 62 16.7 81 81 SSW 3 6 29.75 1007 10 16 N/A
3:52 pm 15:52 Cloudy 69 20.6 62 16.7 78 78 N N/A 29.72 1006 10 16 N/A
4:52 pm 16:52 Cloudy 71 21.7 62 16.7 73 73 ENE 6 9 29.69 1005 10 16 N/A
5:52 pm 17:52 Cloudy 71 21.7 62 16.7 73 73 SE 8 13 29.65 1004 10 16 N/A
6:52 pm 18:52 Cloudy 70 21.1 62 16.7 76 76 ESE 7 11 29.63 1003 10 16 N/A
7:52 pm 19:52 Cloudy 69 20.6 60 15.6 73 73 SSE 8 13 29.61 1003 10 16 N/A
8:18 pm 20:18 Cloudy with Thunderstorms 69 20.6 58 14.4 68 68 S 12 19 29.61 1003 10 16 N/A
8:40 pm 20:40 Cloudy with Heavy Thunderstorms 65 18.3 59 15 81 81 SW 24 39 29.66 1005 2 3 0.02 0.51
8:52 pm 20:52 Cloudy with Thunderstorms 61 16.1 58 14.4 90 90 SW 13 20 29.65 1004 4 6 0.18 4.57
9:15 pm 21:15 Cloudy with Rain 61 16.1 58 14.4 90 90 SSW 9 15 29.64 1004 5 8 0.08 2.03
9:52 pm 21:52 Cloudy with Light Rain 61 16.1 59 15 93 93 SSE 8 13 29.62 1003 7 11 0.19 4.83
10:52 pm 22:52 Cloudy with Light Rain 62 16.7 59 15 90 90 S 10 17 29.60 1002 10 16 0.02 0.51
11:52 pm 23:52 Cloudy 62 16.7 59 15 90 90 SSW 7 11 29.58 1002 10 16 N/A

Powered by AerisWeather